| time (UTC) | temp F | wind direction | speed knots | gust knots | rain 1hr in | rain 24hr in | rain mn in | humidity % | barometer mb |
| 20260505195540 | 80 | 206 | 7.0 | 19.1 | 0.00 | 0.00 | 0.00 | 44 | 1007.8 |
| 20260505195041 | 79 | 133 | 8.7 | 17.4 | 0.00 | 0.00 | 0.00 | 45 | 1007.9 |
| 20260505194605 | 79 | 149 | 7.0 | 19.1 | 0.00 | 0.00 | 0.00 | 42 | 1007.8 |
| 20260505194042 | 80 | 177 | 10.4 | 20.0 | 0.00 | 0.00 | 0.00 | 42 | 1008.0 |
| 20260505193543 | 80 | 181 | 10.4 | 20.0 | 0.00 | 0.00 | 0.00 | 41 | 1008.1 |
| 20260505193052 | 81 | 148 | 7.0 | 18.2 | 0.00 | 0.00 | 0.00 | 41 | 1008.0 |
| 20260505192543 | 81 | 215 | 5.2 | 14.8 | 0.00 | 0.00 | 0.00 | 40 | 1008.1 |
| 20260505192041 | 81 | 211 | 7.0 | 16.5 | 0.00 | 0.00 | 0.00 | 43 | 1008.1 |
| 20260505191550 | 81 | 175 | 7.8 | 16.5 | 0.00 | 0.00 | 0.00 | 43 | 1008.2 |
| 20260505191041 | 81 | 160 | 5.2 | 16.5 | 0.00 | 0.00 | 0.00 | 44 | 1008.1 |
| 20260505190541 | 81 | 182 | 4.3 | 17.4 | 0.00 | 0.00 | 0.00 | 45 | 1008.3 |
| 20260505190049 | 81 | 196 | 7.0 | 17.4 | 0.00 | 0.00 | 0.00 | 42 | 1008.3 |
| 20260505185541 | 80 | 186 | 5.2 | 15.6 | 0.00 | 0.00 | 0.00 | 41 | 1008.4 |
| 20260505185041 | 80 | 178 | 5.2 | 17.4 | 0.00 | 0.00 | 0.00 | 44 | 1008.4 |
| 20260505184547 | 79 | 199 | 5.2 | 17.4 | 0.00 | 0.00 | 0.00 | 45 | 1008.5 |
| 20260505184041 | 79 | 204 | 7.8 | 17.4 | 0.00 | 0.00 | 0.00 | 41 | 1008.6 |
| 20260505183544 | 79 | 142 | 6.1 | 16.5 | 0.00 | 0.00 | 0.00 | 43 | 1008.6 |
| 20260505183054 | 80 | 183 | 9.6 | 23.5 | 0.00 | 0.00 | 0.00 | 41 | 1008.7 |
| 20260505182541 | 80 | 173 | 9.6 | 23.5 | 0.00 | 0.00 | 0.00 | 41 | 1008.7 |
| 20260505182041 | 80 | 171 | 7.8 | 20.0 | 0.00 | 0.00 | 0.00 | 43 | 1008.7 |
| 20260505181550 | 80 | 180 | 6.1 | 21.7 | 0.00 | 0.00 | 0.00 | 42 | 1008.7 |
| 20260505181045 | 79 | 169 | 9.6 | 21.7 | 0.00 | 0.00 | 0.00 | 45 | 1008.8 |
| 20260505180546 | 79 | 229 | 6.1 | 16.5 | 0.00 | 0.00 | 0.00 | 42 | 1008.8 |
| 20260505180107 | 79 | 183 | 7.8 | 16.5 | 0.00 | 0.00 | 0.00 | 45 | 1008.9 |
| 20260505175541 | 79 | 194 | 7.8 | 16.5 | 0.00 | 0.00 | 0.00 | 44 | 1008.9 |
| 20260505175043 | 79 | 196 | 6.1 | 12.2 | 0.00 | 0.00 | 0.00 | 47 | 1008.9 |
| 20260505174600 | 79 | 202 | 5.2 | 17.4 | 0.00 | 0.00 | 0.00 | 46 | 1009.0 |
| 20260505174042 | 79 | 211 | 5.2 | 17.4 | 0.00 | 0.00 | 0.00 | 44 | 1009.1 |
| 20260505173540 | 79 | 198 | 5.2 | 16.5 | 0.00 | 0.00 | 0.00 | 44 | 1008.9 |
| 20260505173046 | 78 | 199 | 5.2 | 17.4 | 0.00 | 0.00 | 0.00 | 46 | 1009.0 |
| 20260505172540 | 77 | 200 | 5.2 | 19.1 | 0.00 | 0.00 | 0.00 | 45 | 1009.0 |
| 20260505172040 | 77 | 168 | 9.6 | 21.7 | 0.00 | 0.00 | 0.00 | 46 | 1009.2 |
| 20260505171552 | 78 | 188 | 7.8 | 21.7 | 0.00 | 0.00 | 0.00 | 45 | 1009.2 |
| 20260505171044 | 78 | 215 | 10.4 | 19.1 | 0.00 | 0.00 | 0.00 | 44 | 1009.2 |
| 20260505170545 | 78 | 208 | 7.0 | 14.8 | 0.00 | 0.00 | 0.00 | 50 | 1009.3 |
| 20260505170055 | 77 | 184 | 7.0 | 15.6 | 0.00 | 0.00 | 0.00 | 46 | 1009.6 |
| 20260505165541 | 77 | 212 | 7.8 | 15.6 | 0.00 | 0.00 | 0.00 | 46 | 1009.5 |
| 20260505165041 | 78 | 173 | 7.0 | 14.8 | 0.00 | 0.00 | 0.00 | 46 | 1009.5 |
| 20260505164552 | 78 | 174 | 5.2 | 17.4 | 0.00 | 0.00 | 0.00 | 48 | 1009.6 |
| 20260505164043 | 78 | 185 | 7.0 | 17.4 | 0.00 | 0.00 | 0.00 | 45 | 1009.7 |
| 20260505163541 | 78 | 208 | 5.2 | 19.1 | 0.00 | 0.00 | 0.00 | 47 | 1009.9 |
| 20260505163055 | 77 | 261 | 6.1 | 19.1 | 0.00 | 0.00 | 0.00 | 53 | 1009.8 |
| 20260505162540 | 78 | 186 | 6.1 | 15.6 | 0.00 | 0.00 | 0.00 | 48 | 1010.1 |
| 20260505162041 | 77 | 167 | 5.2 | 18.2 | 0.00 | 0.00 | 0.00 | 49 | 1010.1 |
| 20260505161607 | 77 | 192 | 6.1 | 21.7 | 0.00 | 0.00 | 0.00 | 47 | 1010.1 |
| 20260505161042 | 77 | 164 | 10.4 | 21.7 | 0.00 | 0.00 | 0.00 | 49 | 1010.1 |
| 20260505160542 | 77 | 221 | 7.8 | 17.4 | 0.00 | 0.00 | 0.00 | 48 | 1010.2 |
| 20260505153052 | 76 | 180 | 6.1 | 15.6 | 0.00 | 0.00 | 0.00 | 46 | 1010.3 |
| 20260505152542 | 76 | 196 | 5.2 | 24.3 | 0.00 | 0.00 | 0.00 | 50 | 1010.3 |
| 20260505152041 | 76 | 212 | 9.6 | 24.3 | 0.00 | 0.00 | 0.00 | 50 | 1010.3 |
| 20260505151549 | 75 | 234 | 6.1 | 20.0 | 0.00 | 0.00 | 0.00 | 51 | 1010.4 |
| 20260505151041 | 75 | 225 | 9.6 | 20.0 | 0.00 | 0.00 | 0.00 | 47 | 1010.4 |
| 20260505150542 | 75 | 244 | 7.8 | 22.6 | 0.00 | 0.00 | 0.00 | 51 | 1010.3 |
| 20260505140538 | 70 | 108 | 3.5 | 8.7 | 0.00 | 0.00 | 0.00 | 66 | 1010.6 |
| 20260505125040 | 63 | 102 | 4.3 | 7.8 | 0.00 | 0.00 | 0.00 | 71 | 1011.3 |
| 20260505124547 | 63 | 114 | 5.2 | 7.8 | 0.00 | 0.00 | 0.00 | 73 | 1011.3 |
| 20260505124042 | 62 | 123 | 4.3 | 7.8 | 0.00 | 0.00 | 0.00 | 75 | 1011.5 |
| 20260505123542 | 62 | 101 | 5.2 | 7.8 | 0.00 | 0.00 | 0.00 | 73 | 1011.4 |
| 20260505123100 | 62 | 109 | 5.2 | 7.8 | 0.00 | 0.00 | 0.00 | 74 | 1011.5 |
| 20260505122539 | 61 | 95 | 4.3 | 7.0 | 0.00 | 0.00 | 0.00 | 74 | 1011.6 |
| 20260505122040 | 61 | 123 | 3.5 | 6.1 | 0.00 | 0.00 | 0.00 | 76 | 1011.6 |
| 20260505121549 | 60 | 100 | 1.7 | 6.1 | 0.00 | 0.00 | 0.00 | 77 | 1011.6 |
| 20260505121039 | 60 | 119 | 2.6 | 6.1 | 0.00 | 0.00 | 0.00 | 75 | 1011.4 |
| 20260505120541 | 60 | 108 | 3.5 | 6.1 | 0.00 | 0.00 | 0.00 | 75 | 1011.4 |
| 20260505120053 | 60 | 79 | 0.0 | 3.5 | 0.00 | 0.00 | 0.00 | 76 | 1011.4 |
| 20260505115538 | 59 | 79 | 1.7 | 3.5 | 0.00 | 0.00 | 0.00 | 77 | 1011.3 |
| 20260505115039 | 59 | 77 | 1.7 | 3.5 | 0.00 | 0.00 | 0.00 | 77 | 1011.2 |
| 20260505114552 | 58 | 0 | 0.0 | 3.5 | 0.00 | 0.00 | 0.00 | 78 | 1011.2 |
| 20260505114042 | 58 | 0 | 0.0 | 3.5 | 0.00 | 0.00 | 0.00 | 80 | 1011.1 |
| 20260505113542 | 57 | 79 | 0.0 | 2.6 | 0.00 | 0.00 | 0.00 | 80 | 1011.1 |
| 20260505113044 | 57 | 0 | 0.0 | 2.6 | 0.00 | 0.00 | 0.00 | 81 | 1011.0 |
| 20260505112541 | 56 | 79 | 0.9 | 3.5 | 0.00 | 0.00 | 0.00 | 81 | 1011.0 |
| 20260505112042 | 56 | 79 | 0.0 | 3.5 | 0.00 | 0.00 | 0.00 | 82 | 1010.9 |
| 20260505111544 | 55 | 0 | 0.9 | 3.5 | 0.00 | 0.00 | 0.00 | 83 | 1011.0 |
| 20260505111039 | 54 | 0 | 0.0 | 2.6 | 0.00 | 0.00 | 0.00 | 83 | 1010.8 |
| 20260505110538 | 54 | 84 | 0.0 | 2.6 | 0.00 | 0.00 | 0.00 | 82 | 1010.7 |
| 20260505102041 | 53 | 84 | 0.9 | 5.2 | 0.00 | 0.00 | 0.00 | 81 | 1010.1 |
| 20260505101545 | 53 | 0 | 0.9 | 5.2 | 0.00 | 0.00 | 0.00 | 81 | 1010.1 |
| 20260505101038 | 54 | 342 | 0.9 | 3.5 | 0.00 | 0.00 | 0.00 | 80 | 1010.2 |
| 20260505100541 | 54 | 0 | 0.9 | 3.5 | 0.00 | 0.00 | 0.00 | 80 | 1010.1 |
| 20260505100053 | 54 | 41 | 0.9 | 5.2 | 0.00 | 0.00 | 0.00 | 79 | 1010.0 |
| 20260505095542 | 54 | 39 | 0.0 | 5.2 | 0.00 | 0.00 | 0.00 | 79 | 1010.0 |
| 20260505095038 | 54 | 38 | 1.7 | 5.2 | 0.00 | 0.00 | 0.00 | 78 | 1010.0 |
| 20260505094553 | 55 | 0 | 1.7 | 6.1 | 0.00 | 0.00 | 0.00 | 77 | 1010.0 |
| 20260505094038 | 56 | 0 | 0.9 | 7.8 | 0.00 | 0.00 | 0.00 | 76 | 1010.0 |
| 20260505093538 | 57 | 100 | 0.9 | 7.8 | 0.00 | 0.00 | 0.00 | 73 | 1009.9 |
| 20260505093051 | 59 | 106 | 5.2 | 10.4 | 0.00 | 0.00 | 0.00 | 69 | 1009.8 |
| 20260505092538 | 63 | 94 | 5.2 | 11.3 | 0.00 | 0.00 | 0.00 | 65 | 1009.9 |
| 20260505092038 | 63 | 202 | 4.3 | 13.9 | 0.00 | 0.00 | 0.00 | 63 | 1009.8 |
| 20260505091606 | 62 | 212 | 5.2 | 13.9 | 0.00 | 0.00 | 0.00 | 66 | 1009.6 |
| 20260505091041 | 60 | 176 | 3.5 | 13.9 | 0.00 | 0.00 | 0.00 | 70 | 1009.5 |
| 20260505090541 | 58 | 201 | 4.3 | 12.2 | 0.00 | 0.00 | 0.00 | 76 | 1009.5 |
| 20260505090047 | 53 | 154 | 3.5 | 10.4 | 0.00 | 0.00 | 0.00 | 84 | 1009.5 |
| 20260505085541 | 51 | 227 | 2.6 | 7.8 | 0.00 | 0.00 | 0.00 | 88 | 1009.5 |
| 20260505085039 | 50 | 116 | 1.7 | 4.3 | 0.00 | 0.00 | 0.00 | 87 | 1009.5 |
| 20260505084545 | 50 | 0 | 0.0 | 2.6 | 0.00 | 0.00 | 0.00 | 87 | 1009.6 |
| 20260505084039 | 50 | 0 | 0.0 | 2.6 | 0.00 | 0.00 | 0.00 | 87 | 1009.8 |
| 20260505083538 | 50 | 22 | 0.9 | 2.6 | 0.00 | 0.00 | 0.00 | 85 | 1009.7 |
| 20260505083051 | 50 | 22 | 0.9 | 2.6 | 0.00 | 0.00 | 0.00 | 86 | 1009.6 |
| 20260505082538 | 50 | 0 | 0.0 | 2.6 | 0.00 | 0.00 | 0.00 | 87 | 1009.6 |
| 20260505082041 | 50 | 22 | 0.0 | 2.6 | 0.00 | 0.00 | 0.00 | 87 | 1009.7 |
| 20260505081800 | 50 | 22 | 0.0 | 3.5 | 0.00 | 0.00 | 0.00 | 86 | 1009.8 |
| 20260505081559 | 50 | 22 | 0.0 | 3.5 | 0.00 | 0.00 | 0.00 | 86 | 1009.8 |
| 20260505081041 | 50 | 22 | 0.0 | 3.5 | 0.00 | 0.00 | 0.00 | 86 | 1009.8 |
| 20260505080541 | 50 | 22 | 1.7 | 3.5 | 0.00 | 0.00 | 0.00 | 86 | 1009.8 |
| 20260505075541 | 50 | 22 | 0.0 | 3.5 | 0.00 | 0.00 | 0.00 | 85 | 1009.7 |
| 20260505075042 | 51 | 0 | 0.9 | 3.5 | 0.00 | 0.00 | 0.00 | 86 | 1009.7 |
| 20260505074548 | 51 | 5 | 0.0 | 1.7 | 0.00 | 0.00 | 0.00 | 86 | 1009.6 |
| 20260505074041 | 51 | 0 | 0.0 | 1.7 | 0.00 | 0.00 | 0.00 | 86 | 1009.4 |
| 20260505073541 | 51 | 0 | 0.0 | 1.7 | 0.00 | 0.00 | 0.00 | 86 | 1009.4 |
| 20260505073048 | 51 | 0 | 0.0 | 1.7 | 0.00 | 0.00 | 0.00 | 86 | 1009.4 |
| 20260505072540 | 51 | 5 | 0.0 | 2.6 | 0.00 | 0.00 | 0.00 | 86 | 1009.4 |
| 20260505072040 | 51 | 0 | 0.0 | 2.6 | 0.00 | 0.00 | 0.00 | 86 | 1009.4 |
| 20260505071557 | 51 | 5 | 1.7 | 4.3 | 0.00 | 0.00 | 0.00 | 85 | 1009.4 |
| 20260505071042 | 51 | 5 | 1.7 | 4.3 | 0.00 | 0.00 | 0.00 | 83 | 1009.5 |
| 20260505070542 | 51 | 5 | 1.7 | 3.5 | 0.00 | 0.00 | 0.00 | 83 | 1009.5 |
| 20260505070049 | 52 | 5 | 1.7 | 3.5 | 0.00 | 0.00 | 0.00 | 83 | 1009.4 |
| 20260505065542 | 52 | 5 | 0.9 | 2.6 | 0.00 | 0.00 | 0.00 | 83 | 1009.4 |
| 20260505065041 | 52 | 0 | 0.0 | 1.7 | 0.00 | 0.00 | 0.00 | 83 | 1009.5 |
| 20260505064543 | 53 | 0 | 0.0 | 1.7 | 0.00 | 0.00 | 0.00 | 83 | 1009.5 |
| 20260505064044 | 53 | 0 | 0.9 | 2.6 | 0.00 | 0.00 | 0.00 | 83 | 1009.4 |
| 20260505063541 | 53 | 5 | 0.9 | 3.5 | 0.00 | 0.00 | 0.00 | 83 | 1009.5 |
| 20260505063105 | 53 | 5 | 1.7 | 3.5 | 0.00 | 0.00 | 0.00 | 82 | 1009.6 |
| 20260505062541 | 53 | 5 | 1.7 | 3.5 | 0.00 | 0.00 | 0.00 | 81 | 1009.6 |
| 20260505062040 | 54 | 5 | 0.9 | 2.6 | 0.00 | 0.00 | 0.00 | 79 | 1009.7 |
| 20260505061612 | 54 | 5 | 0.0 | 2.6 | 0.00 | 0.00 | 0.00 | 77 | 1009.7 |
| 20260505061041 | 55 | 5 | 0.9 | 2.6 | 0.00 | 0.00 | 0.00 | 77 | 1009.6 |
| 20260505060541 | 56 | 0 | 0.0 | 2.6 | 0.00 | 0.00 | 0.00 | 76 | 1009.6 |
| 20260505060055 | 56 | 0 | 0.0 | 2.6 | 0.00 | 0.00 | 0.00 | 75 | 1009.6 |
| 20260505055541 | 57 | 0 | 0.0 | 2.6 | 0.00 | 0.00 | 0.00 | 75 | 1009.7 |
| 20260505055041 | 57 | 0 | 0.9 | 2.6 | 0.00 | 0.00 | 0.00 | 74 | 1009.7 |
| 20260505054606 | 58 | 109 | 0.0 | 1.7 | 0.00 | 0.00 | 0.00 | 73 | 1009.7 |
| 20260505054039 | 59 | 0 | 0.0 | 1.7 | 0.00 | 0.00 | 0.00 | 71 | 1009.7 |
| 20260505053539 | 60 | 0 | 0.0 | 3.5 | 0.00 | 0.00 | 0.00 | 69 | 1009.6 |
| 20260505053045 | 60 | 0 | 0.9 | 5.2 | 0.00 | 0.00 | 0.00 | 69 | 1009.7 |
| 20260505052540 | 61 | 109 | 1.7 | 6.1 | 0.00 | 0.00 | 0.00 | 68 | 1009.6 |
| 20260505052152 | 61 | 121 | 2.6 | 6.1 | 0.00 | 0.00 | 0.00 | 67 | 1009.7 |
| 20260505051611 | 62 | 148 | 1.7 | 6.1 | 0.00 | 0.00 | 0.00 | 66 | 1009.7 |
| 20260505051041 | 63 | 186 | 0.9 | 7.0 | 0.00 | 0.00 | 0.00 | 65 | 1009.6 |
| 20260505050540 | 64 | 187 | 1.7 | 7.0 | 0.00 | 0.00 | 0.00 | 63 | 1009.7 |
| 20260505041556 | 63 | 194 | 0.0 | 7.0 | 0.00 | 0.00 | 0.00 | 64 | 1009.5 |
| 20260505041041 | 63 | 221 | 1.7 | 7.8 | 0.00 | 0.00 | 0.00 | 63 | 1009.5 |
| 20260505040544 | 64 | 200 | 3.5 | 7.8 | 0.00 | 0.00 | 0.00 | 63 | 1009.5 |
| 20260505040053 | 64 | 167 | 3.5 | 7.8 | 0.00 | 0.00 | 0.00 | 63 | 1009.5 |
| 20260505035540 | 64 | 207 | 1.7 | 7.0 | 0.00 | 0.00 | 0.00 | 63 | 1009.5 |
| 20260505035041 | 64 | 195 | 2.6 | 7.8 | 0.00 | 0.00 | 0.00 | 63 | 1009.5 |
| 20260505034549 | 64 | 231 | 2.6 | 7.8 | 0.00 | 0.00 | 0.00 | 63 | 1009.5 |
| 20260505034038 | 63 | 193 | 1.7 | 5.2 | 0.00 | 0.00 | 0.00 | 63 | 1009.5 |
| 20260505033538 | 63 | 254 | 1.7 | 7.0 | 0.00 | 0.00 | 0.00 | 65 | 1009.5 |
| 20260505033049 | 62 | 227 | 1.7 | 7.0 | 0.00 | 0.00 | 0.00 | 66 | 1009.5 |
| 20260505032541 | 61 | 197 | 2.6 | 7.0 | 0.00 | 0.00 | 0.00 | 67 | 1009.6 |
| 20260505032042 | 60 | 256 | 0.9 | 7.0 | 0.00 | 0.00 | 0.00 | 70 | 1009.5 |
| 20260505031553 | 58 | 203 | 1.7 | 5.2 | 0.00 | 0.00 | 0.00 | 73 | 1009.6 |
| 20260505031040 | 58 | 213 | 0.0 | 3.5 | 0.00 | 0.00 | 0.00 | 73 | 1009.6 |
| 20260505030543 | 58 | 0 | 0.9 | 3.5 | 0.00 | 0.00 | 0.00 | 73 | 1009.6 |
| 20260505030055 | 58 | 0 | 0.0 | 2.6 | 0.00 | 0.00 | 0.00 | 72 | 1009.5 |
| 20260505025541 | 59 | 0 | 0.0 | 1.7 | 0.00 | 0.00 | 0.00 | 71 | 1009.5 |
| 20260505025040 | 59 | 0 | 0.0 | 1.7 | 0.00 | 0.00 | 0.00 | 70 | 1009.5 |
| 20260505024548 | 60 | 200 | 0.0 | 2.6 | 0.00 | 0.00 | 0.00 | 68 | 1009.6 |
| 20260505024042 | 60 | 0 | 0.0 | 2.6 | 0.00 | 0.00 | 0.00 | 67 | 1009.6 |
| 20260505023540 | 61 | 0 | 0.0 | 3.5 | 0.00 | 0.00 | 0.00 | 66 | 1009.4 |
| 20260505023043 | 62 | 200 | 0.9 | 4.3 | 0.00 | 0.00 | 0.00 | 65 | 1009.4 |
| 20260505022541 | 62 | 202 | 0.9 | 5.2 | 0.00 | 0.00 | 0.00 | 65 | 1009.5 |
| 20260505022038 | 62 | 0 | 0.9 | 5.2 | 0.00 | 0.00 | 0.00 | 64 | 1009.3 |
| 20260505021552 | 63 | 182 | 0.9 | 4.3 | 0.00 | 0.00 | 0.00 | 63 | 1009.3 |
| 20260505021038 | 63 | 201 | 0.9 | 3.5 | 0.00 | 0.00 | 0.00 | 62 | 1009.4 |
| 20260505020541 | 64 | 180 | 0.9 | 5.2 | 0.00 | 0.00 | 0.00 | 62 | 1009.5 |
| 20260505020052 | 64 | 198 | 1.7 | 6.1 | 0.00 | 0.00 | 0.00 | 61 | 1009.5 |
| 20260505015542 | 64 | 213 | 1.7 | 6.1 | 0.00 | 0.00 | 0.00 | 61 | 1009.6 |
| 20260505015038 | 64 | 187 | 2.6 | 6.1 | 0.00 | 0.00 | 0.00 | 61 | 1009.5 |
| 20260505014549 | 64 | 169 | 0.0 | 7.0 | 0.00 | 0.00 | 0.00 | 60 | 1009.4 |
| 20260505014040 | 64 | 217 | 2.6 | 11.3 | 0.00 | 0.00 | 0.00 | 61 | 1009.4 |
| 20260505013537 | 63 | 180 | 1.7 | 11.3 | 0.00 | 0.00 | 0.00 | 62 | 1009.3 |
| 20260505013057 | 61 | 196 | 2.6 | 8.7 | 0.00 | 0.00 | 0.00 | 64 | 1009.3 |
| 20260505012540 | 60 | 178 | 1.7 | 5.2 | 0.00 | 0.00 | 0.00 | 65 | 1009.2 |
| 20260505012040 | 60 | 0 | 0.9 | 2.6 | 0.00 | 0.00 | 0.00 | 65 | 1009.3 |
| 20260505011553 | 60 | 0 | 0.9 | 2.6 | 0.00 | 0.00 | 0.00 | 64 | 1008.8 |
| 20260505011042 | 60 | 0 | 0.0 | 0.9 | 0.00 | 0.00 | 0.00 | 65 | 1009.0 |
| 20260505010540 | 60 | 0 | 0.0 | 1.7 | 0.00 | 0.00 | 0.00 | 65 | 1009.0 |
| 20260505010109 | 60 | 0 | 0.0 | 1.7 | 0.00 | 0.00 | 0.00 | 64 | 1008.9 |
| 20260505005538 | 61 | 0 | 0.0 | 1.7 | 0.00 | 0.00 | 0.00 | 63 | 1009.1 |
| 20260505005040 | 61 | 197 | 0.0 | 1.7 | 0.00 | 0.00 | 0.00 | 62 | 1008.9 |
| 20260505004548 | 62 | 0 | 0.0 | 0.0 | 0.00 | 0.00 | 0.00 | 60 | 1009.0 |
| 20260505004040 | 63 | 0 | 0.0 | 0.0 | 0.00 | 0.00 | 0.00 | 60 | 1008.8 |
| 20260505003538 | 63 | 0 | 0.0 | 1.7 | 0.00 | 0.00 | 0.00 | 58 | 1008.7 |
| 20260505003056 | 64 | 0 | 0.0 | 3.5 | 0.00 | 0.00 | 0.00 | 58 | 1008.7 |
| 20260505002540 | 65 | 199 | 0.0 | 5.2 | 0.00 | 0.00 | 0.00 | 56 | 1008.7 |
| 20260505002041 | 65 | 199 | 1.7 | 5.2 | 0.00 | 0.00 | 0.00 | 54 | 1008.6 |
| 20260505001550 | 66 | 198 | 2.6 | 6.1 | 0.00 | 0.00 | 0.00 | 53 | 1008.6 |
| 20260505001037 | 66 | 176 | 2.6 | 7.0 | 0.00 | 0.00 | 0.00 | 52 | 1008.5 |
| 20260505000540 | 67 | 186 | 2.6 | 7.0 | 0.00 | 0.00 | 0.00 | 52 | 1008.5 |
| 20260505000054 | 67 | 188 | 2.6 | 7.0 | 0.00 | 0.00 | 0.00 | 51 | 1008.6 |
| 20260504235540 | 68 | 179 | 2.6 | 7.8 | 0.00 | 0.00 | 0.00 | 50 | 1008.6 |
| 20260504235040 | 68 | 188 | 3.5 | 7.8 | 0.00 | 0.00 | 0.00 | 50 | 1008.6 |
| 20260504234549 | 69 | 186 | 2.6 | 7.0 | 0.00 | 0.00 | 0.00 | 48 | 1008.5 |
| 20260504234041 | 69 | 181 | 2.6 | 7.0 | 0.00 | 0.00 | 0.00 | 48 | 1008.3 |
| 20260504233541 | 70 | 163 | 2.6 | 7.8 | 0.00 | 0.00 | 0.00 | 48 | 1008.5 |
| 20260504233101 | 70 | 142 | 3.5 | 11.3 | 0.00 | 0.00 | 0.00 | 47 | 1008.3 |
| 20260504232541 | 70 | 153 | 4.3 | 12.2 | 0.00 | 0.00 | 0.00 | 46 | 1008.4 |
| 20260504232041 | 71 | 178 | 4.3 | 12.2 | 0.00 | 0.00 | 0.00 | 46 | 1008.5 |
| 20260504231548 | 71 | 186 | 2.6 | 9.6 | 0.00 | 0.00 | 0.00 | 46 | 1008.4 |
| 20260504231041 | 71 | 192 | 3.5 | 13.0 | 0.00 | 0.00 | 0.00 | 46 | 1008.4 |
| 20260504230541 | 71 | 179 | 6.1 | 13.0 | 0.00 | 0.00 | 0.00 | 46 | 1008.4 |
| 20260504230056 | 72 | 179 | 4.3 | 11.3 | 0.00 | 0.00 | 0.00 | 47 | 1008.4 |
| 20260504225542 | 72 | 132 | 3.5 | 13.9 | 0.00 | 0.00 | 0.00 | 46 | 1008.5 |
| 20260504225041 | 72 | 173 | 5.2 | 13.9 | 0.00 | 0.00 | 0.00 | 46 | 1008.5 |
| 20260504224552 | 72 | 165 | 3.5 | 10.4 | 0.00 | 0.00 | 0.00 | 46 | 1008.4 |
| 20260504224043 | 72 | 148 | 5.2 | 10.4 | 0.00 | 0.00 | 0.00 | 46 | 1008.4 |
| 20260504223541 | 72 | 169 | 3.5 | 11.3 | 0.00 | 0.00 | 0.00 | 47 | 1008.3 |
| 20260504223047 | 71 | 168 | 5.2 | 11.3 | 0.00 | 0.00 | 0.00 | 46 | 1008.5 |
| 20260504222541 | 71 | 150 | 3.5 | 10.4 | 0.00 | 0.00 | 0.00 | 46 | 1008.5 |
| 20260504222038 | 71 | 165 | 2.6 | 8.7 | 0.00 | 0.00 | 0.00 | 47 | 1008.5 |
| 20260504221546 | 71 | 165 | 3.5 | 9.6 | 0.00 | 0.00 | 0.00 | 47 | 1008.5 |
| 20260504221040 | 71 | 175 | 3.5 | 9.6 | 0.00 | 0.00 | 0.00 | 47 | 1008.5 |
| 20260504220541 | 71 | 165 | 3.5 | 14.8 | 0.00 | 0.00 | 0.00 | 46 | 1008.6 |
| 20260504220052 | 72 | 132 | 7.0 | 14.8 | 0.00 | 0.00 | 0.00 | 44 | 1008.6 |
| 20260504215543 | 72 | 138 | 6.1 | 13.0 | 0.00 | 0.00 | 0.00 | 45 | 1008.5 |
| 20260504215040 | 73 | 121 | 7.8 | 13.0 | 0.00 | 0.00 | 0.00 | 44 | 1008.6 |
| 20260504214556 | 73 | 138 | 5.2 | 12.2 | 0.00 | 0.00 | 0.00 | 46 | 1008.5 |
| 20260504214045 | 73 | 150 | 5.2 | 13.0 | 0.00 | 0.00 | 0.00 | 45 | 1008.5 |
| 20260504213545 | 72 | 126 | 5.2 | 13.0 | 0.00 | 0.00 | 0.00 | 47 | 1008.5 |
| 20260504213057 | 71 | 155 | 5.2 | 13.9 | 0.00 | 0.00 | 0.00 | 45 | 1008.4 |
| 20260504212541 | 71 | 163 | 6.1 | 13.9 | 0.00 | 0.00 | 0.00 | 45 | 1008.5 |
| 20260504212043 | 72 | 107 | 5.2 | 13.9 | 0.00 | 0.00 | 0.00 | 46 | 1008.5 |
| 20260504211546 | 73 | 156 | 7.8 | 13.9 | 0.00 | 0.00 | 0.00 | 45 | 1008.4 |
| 20260504211041 | 73 | 166 | 7.0 | 13.9 | 0.00 | 0.00 | 0.00 | 43 | 1008.3 |
| 20260504210540 | 73 | 176 | 7.0 | 13.9 | 0.00 | 0.00 | 0.00 | 42 | 1008.2 |
| 20260504210106 | 73 | 182 | 7.0 | 15.6 | 0.00 | 0.00 | 0.00 | 43 | 1008.3 |
| 20260504205537 | 73 | 117 | 7.0 | 15.6 | 0.00 | 0.00 | 0.00 | 44 | 1008.3 |
| 20260504205042 | 73 | 166 | 5.2 | 14.8 | 0.00 | 0.00 | 0.00 | 45 | 1008.4 |
| 20260504204559 | 73 | 169 | 7.0 | 14.8 | 0.00 | 0.00 | 0.00 | 42 | 1008.3 |
| 20260504204040 | 74 | 159 | 3.5 | 13.9 | 0.00 | 0.00 | 0.00 | 44 | 1008.3 |
| 20260504203540 | 73 | 179 | 5.2 | 13.9 | 0.00 | 0.00 | 0.00 | 42 | 1008.3 |
| 20260504203104 | 73 | 198 | 5.2 | 14.8 | 0.00 | 0.00 | 0.00 | 41 | 1008.3 |
| 20260504202542 | 74 | 203 | 6.1 | 14.8 | 0.00 | 0.00 | 0.00 | 45 | 1008.5 |
| 20260504202042 | 74 | 157 | 4.3 | 12.2 | 0.00 | 0.00 | 0.00 | 46 | 1008.5 |
| 20260504201554 | 74 | 165 | 6.1 | 11.3 | 0.00 | 0.00 | 0.00 | 43 | 1008.5 |
| 20260504201042 | 73 | 188 | 1.7 | 14.8 | 0.00 | 0.00 | 0.00 | 42 | 1008.5 |
| 20260504200541 | 73 | 186 | 7.0 | 16.5 | 0.00 | 0.00 | 0.00 | 42 | 1008.7 |